Year,Month,Day,Hour,Minute,Value (Times are PST for windspeed in km/hr)
2017,06,16,00,00,10.10
2017,06,16,00,01,6.60
2017,06,16,00,02,8.20
2017,06,16,00,03,6.90
2017,06,16,00,04,11.60
2017,06,16,00,05,13.40
2017,06,16,00,06,11.40
2017,06,16,00,07,9.10
2017,06,16,00,08,5.70
2017,06,16,00,09,6.80
2017,06,16,00,10,11.30
2017,06,16,00,11,7.10
2017,06,16,00,12,6.40
2017,06,16,00,13,13.10
2017,06,16,00,14,10.10
2017,06,16,00,15,9.40
2017,06,16,00,16,9.20
2017,06,16,00,17,10.70
2017,06,16,00,18,14.90
2017,06,16,00,19,9.30
2017,06,16,00,20,7.60
2017,06,16,00,21,5.80
2017,06,16,00,22,7.60
2017,06,16,00,23,6.80
2017,06,16,00,24,6.80
2017,06,16,00,25,6.90
2017,06,16,00,26,4.80
2017,06,16,00,27,8.80
2017,06,16,00,28,6.50
2017,06,16,00,29,6.20
2017,06,16,00,30,5.80
2017,06,16,00,31,5.90
2017,06,16,00,32,5.00
2017,06,16,00,33,6.80
2017,06,16,00,34,13.00
2017,06,16,00,35,8.50
2017,06,16,00,36,10.10
2017,06,16,00,37,6.40
2017,06,16,00,38,8.40
2017,06,16,00,39,12.20
2017,06,16,00,40,10.80
2017,06,16,00,41,8.90
2017,06,16,00,42,9.60
2017,06,16,00,43,10.90
2017,06,16,00,44,6.20
2017,06,16,00,45,11.30
2017,06,16,00,46,7.60
2017,06,16,00,47,7.20
2017,06,16,00,48,7.10
2017,06,16,00,49,5.90
2017,06,16,00,50,10.40
2017,06,16,00,51,7.90
2017,06,16,00,52,5.70
2017,06,16,00,53,8.80
2017,06,16,00,54,5.10
2017,06,16,00,55,7.20
2017,06,16,00,56,12.80
2017,06,16,00,57,9.00
2017,06,16,00,58,9.10
2017,06,16,00,59,6.70
2017,06,16,01,00,5.60
2017,06,16,01,01,7.40
2017,06,16,01,02,3.50
2017,06,16,01,03,3.50
2017,06,16,01,04,3.90
2017,06,16,01,05,4.30
2017,06,16,01,06,3.00
2017,06,16,01,07,3.00
2017,06,16,01,08,2.30
2017,06,16,01,09,0.90
2017,06,16,01,10,3.60
2017,06,16,01,11,1.10
2017,06,16,01,12,3.00
2017,06,16,01,13,1.70
2017,06,16,01,14,1.90
2017,06,16,01,15,2.60
2017,06,16,01,16,1.20
2017,06,16,01,17,1.20
2017,06,16,01,18,0.80
2017,06,16,01,19,0.50
2017,06,16,01,20,0.80
2017,06,16,01,21,2.20
2017,06,16,01,22,1.20
2017,06,16,01,23,5.20
2017,06,16,01,24,2.90
2017,06,16,01,25,3.00
2017,06,16,01,26,2.90
2017,06,16,01,27,1.10
2017,06,16,01,28,1.50
2017,06,16,01,29,1.50
2017,06,16,01,30,2.30
2017,06,16,01,31,3.00
2017,06,16,01,32,2.20
2017,06,16,01,33,0.70
2017,06,16,01,34,1.40
2017,06,16,01,35,0.60
2017,06,16,01,36,0.30
2017,06,16,01,37,1.20
2017,06,16,01,38,3.20
2017,06,16,01,39,3.20
2017,06,16,01,40,3.40
2017,06,16,01,41,1.60
2017,06,16,01,42,1.70
2017,06,16,01,43,2.00
2017,06,16,01,44,2.20
2017,06,16,01,45,1.80
2017,06,16,01,46,2.10
2017,06,16,01,47,2.70
2017,06,16,01,48,1.90
2017,06,16,01,49,1.40
2017,06,16,01,50,2.10
2017,06,16,01,51,2.20
2017,06,16,01,52,3.40
2017,06,16,01,53,2.30
2017,06,16,01,54,2.20
2017,06,16,01,55,2.10
2017,06,16,01,56,2.10
2017,06,16,01,57,4.80
2017,06,16,01,58,3.60
2017,06,16,01,59,2.70
2017,06,16,02,00,2.90
2017,06,16,02,01,2.40
2017,06,16,02,02,1.30
2017,06,16,02,03,2.00
2017,06,16,02,04,3.40
2017,06,16,02,05,4.00
2017,06,16,02,06,3.30
2017,06,16,02,07,2.00
2017,06,16,02,08,3.30
2017,06,16,02,09,4.30
2017,06,16,02,10,2.60
2017,06,16,02,11,2.20
2017,06,16,02,12,2.30
2017,06,16,02,13,2.40
2017,06,16,02,14,4.80
2017,06,16,02,15,2.50
2017,06,16,02,16,3.30
2017,06,16,02,17,3.00
2017,06,16,02,18,3.60
2017,06,16,02,19,3.40
2017,06,16,02,20,6.10
2017,06,16,02,21,6.50
2017,06,16,02,22,6.20
2017,06,16,02,23,4.70
2017,06,16,02,24,3.60
2017,06,16,02,25,5.60
2017,06,16,02,26,5.50
2017,06,16,02,27,4.90
2017,06,16,02,28,4.00
2017,06,16,02,29,5.80
2017,06,16,02,30,3.60
2017,06,16,02,31,4.50
2017,06,16,02,32,3.60
2017,06,16,02,33,4.70
2017,06,16,02,34,2.80
2017,06,16,02,35,4.00
2017,06,16,02,36,2.70
2017,06,16,02,37,2.30
2017,06,16,02,38,2.70
2017,06,16,02,39,1.90
2017,06,16,02,40,3.50
2017,06,16,02,41,3.70
2017,06,16,02,42,2.90
2017,06,16,02,43,2.10
2017,06,16,02,44,2.10
2017,06,16,02,45,1.60
2017,06,16,02,46,1.90
2017,06,16,02,47,1.20
2017,06,16,02,48,1.00
2017,06,16,02,49,0.40
2017,06,16,02,50,1.30
2017,06,16,02,51,1.80
2017,06,16,02,52,1.60
2017,06,16,02,53,2.80
2017,06,16,02,54,2.70
2017,06,16,02,55,3.30
2017,06,16,02,56,3.60
2017,06,16,02,57,3.20
2017,06,16,02,58,3.30
2017,06,16,02,59,2.20
2017,06,16,03,00,2.20
2017,06,16,03,01,2.50
2017,06,16,03,02,2.20
2017,06,16,03,03,2.40
2017,06,16,03,04,2.00
2017,06,16,03,05,1.90
2017,06,16,03,06,2.00
2017,06,16,03,07,1.60
2017,06,16,03,08,1.80
2017,06,16,03,09,1.30
2017,06,16,03,10,0.70
2017,06,16,03,11,1.80
2017,06,16,03,12,2.10
2017,06,16,03,13,3.00
2017,06,16,03,14,3.40
2017,06,16,03,15,3.20
2017,06,16,03,16,2.50
2017,06,16,03,17,3.10
2017,06,16,03,18,3.40
2017,06,16,03,19,2.70
2017,06,16,03,20,1.80
2017,06,16,03,21,2.20
2017,06,16,03,22,1.90
2017,06,16,03,23,1.10
2017,06,16,03,24,1.60
2017,06,16,03,25,2.70
2017,06,16,03,26,2.40
2017,06,16,03,27,2.40
2017,06,16,03,28,1.80
2017,06,16,03,29,2.00
2017,06,16,03,30,2.50
2017,06,16,03,31,2.80
2017,06,16,03,32,2.90
2017,06,16,03,33,1.80
2017,06,16,03,34,0.80
2017,06,16,03,35,0.90
2017,06,16,03,36,0.70
2017,06,16,03,37,2.40
2017,06,16,03,38,4.50
2017,06,16,03,39,4.10
2017,06,16,03,40,3.80
2017,06,16,03,41,3.30
2017,06,16,03,42,2.10
2017,06,16,03,43,2.60
2017,06,16,03,44,2.80
2017,06,16,03,45,2.40
2017,06,16,03,46,1.80
2017,06,16,03,47,0.70
2017,06,16,03,48,0.10
2017,06,16,03,49,0.80
2017,06,16,03,50,1.30
2017,06,16,03,51,1.70
2017,06,16,03,52,2.10
2017,06,16,03,53,2.20
2017,06,16,03,54,3.30
2017,06,16,03,55,4.10
2017,06,16,03,56,2.80
2017,06,16,03,57,3.50
2017,06,16,03,58,3.10
2017,06,16,03,59,2.40
2017,06,16,04,00,2.80
2017,06,16,04,01,2.00
2017,06,16,04,02,2.80
2017,06,16,04,03,2.20
2017,06,16,04,04,1.30
2017,06,16,04,05,1.10
2017,06,16,04,06,1.00
2017,06,16,04,07,1.40
2017,06,16,04,08,1.30
2017,06,16,04,09,1.10
2017,06,16,04,10,2.50
2017,06,16,04,11,2.80
2017,06,16,04,12,3.60
2017,06,16,04,13,3.20
2017,06,16,04,14,3.10
2017,06,16,04,15,3.40
2017,06,16,04,16,2.80
2017,06,16,04,17,3.40
2017,06,16,04,18,2.80
2017,06,16,04,19,2.50
2017,06,16,04,20,2.10
2017,06,16,04,21,1.70
2017,06,16,04,22,1.10
2017,06,16,04,23,0.20
2017,06,16,04,24,1.60
2017,06,16,04,25,0.90
2017,06,16,04,26,0.80
2017,06,16,04,27,2.00
2017,06,16,04,28,4.70
2017,06,16,04,29,4.70
2017,06,16,04,30,4.30
2017,06,16,04,31,2.90
2017,06,16,04,32,0.90
2017,06,16,04,33,0.10
2017,06,16,04,34,0.80
2017,06,16,04,35,1.60
2017,06,16,04,36,2.60
2017,06,16,04,37,2.40
2017,06,16,04,38,1.40
2017,06,16,04,39,0.10
2017,06,16,04,40,0.00
2017,06,16,04,41,0.40
2017,06,16,04,42,1.30
2017,06,16,04,43,0.90
2017,06,16,04,44,0.60
2017,06,16,04,45,0.70
2017,06,16,04,46,0.90
2017,06,16,04,47,2.50
2017,06,16,04,48,2.50
2017,06,16,04,49,1.80
2017,06,16,04,50,1.20
2017,06,16,04,51,1.70
2017,06,16,04,52,2.20
2017,06,16,04,53,1.60
2017,06,16,04,54,1.10
2017,06,16,04,55,1.60
2017,06,16,04,56,2.60
2017,06,16,04,57,2.40
2017,06,16,04,58,2.60
2017,06,16,04,59,1.40
2017,06,16,05,00,0.80
2017,06,16,05,01,0.10
2017,06,16,05,02,2.70
2017,06,16,05,03,3.00
2017,06,16,05,04,2.40
2017,06,16,05,05,0.30
2017,06,16,05,06,0.30
2017,06,16,05,07,1.40
2017,06,16,05,08,2.90
2017,06,16,05,09,2.90
2017,06,16,05,10,3.00
2017,06,16,05,11,3.90
2017,06,16,05,12,3.80
2017,06,16,05,13,4.50
2017,06,16,05,14,2.70
2017,06,16,05,15,2.50
2017,06,16,05,16,1.70
2017,06,16,05,17,1.50
2017,06,16,05,18,1.00
2017,06,16,05,19,1.80
2017,06,16,05,20,1.60
2017,06,16,05,21,1.50
2017,06,16,05,22,1.40
2017,06,16,05,23,0.70
2017,06,16,05,24,0.90
2017,06,16,05,25,0.10
2017,06,16,05,26,0.00
2017,06,16,05,27,0.70
2017,06,16,05,28,2.50
2017,06,16,05,29,3.40
2017,06,16,05,30,2.60
2017,06,16,05,31,1.40
2017,06,16,05,32,0.60
2017,06,16,05,33,0.00
2017,06,16,05,34,0.10
2017,06,16,05,35,0.00
2017,06,16,05,36,0.00
2017,06,16,05,37,0.00
2017,06,16,05,38,0.00
2017,06,16,05,39,0.00
2017,06,16,05,40,0.00
2017,06,16,05,41,0.00
2017,06,16,05,42,0.30
2017,06,16,05,43,1.60
2017,06,16,05,44,0.70
2017,06,16,05,45,1.40
2017,06,16,05,46,2.20
2017,06,16,05,47,1.50
2017,06,16,05,48,0.70
2017,06,16,05,49,0.40
2017,06,16,05,50,1.30
2017,06,16,05,51,2.40
2017,06,16,05,52,3.30
2017,06,16,05,53,3.00
2017,06,16,05,54,2.20
2017,06,16,05,55,2.10
2017,06,16,05,56,2.00
2017,06,16,05,57,4.40
2017,06,16,05,58,0.80
2017,06,16,05,59,1.80
2017,06,16,06,00,1.50
2017,06,16,06,01,0.20
2017,06,16,06,02,0.40
2017,06,16,06,03,2.10
2017,06,16,06,04,2.90
2017,06,16,06,05,1.80
2017,06,16,06,06,1.70
2017,06,16,06,07,0.30
2017,06,16,06,08,0.10
2017,06,16,06,09,0.30
2017,06,16,06,10,2.10
2017,06,16,06,11,2.20
2017,06,16,06,12,2.40
2017,06,16,06,13,3.30
2017,06,16,06,14,3.50
2017,06,16,06,15,3.80
2017,06,16,06,16,3.80
2017,06,16,06,17,3.10
2017,06,16,06,18,1.00
2017,06,16,06,19,0.30
2017,06,16,06,20,1.30
2017,06,16,06,21,1.50
2017,06,16,06,22,1.10
2017,06,16,06,23,0.70
2017,06,16,06,24,0.40
2017,06,16,06,25,0.00
2017,06,16,06,26,0.30
2017,06,16,06,27,0.10
2017,06,16,06,28,0.50
2017,06,16,06,29,0.90
2017,06,16,06,30,1.60
2017,06,16,06,31,1.10
2017,06,16,06,32,2.00
2017,06,16,06,33,1.90
2017,06,16,06,34,1.70
2017,06,16,06,35,1.20
2017,06,16,06,36,2.70
2017,06,16,06,37,3.40
2017,06,16,06,38,2.80
2017,06,16,06,39,2.30
2017,06,16,06,40,1.70
2017,06,16,06,41,1.80
2017,06,16,06,42,1.90
2017,06,16,06,43,2.80
2017,06,16,06,44,2.20
2017,06,16,06,45,1.60
2017,06,16,06,46,1.90
2017,06,16,06,47,1.30
2017,06,16,06,48,1.40
2017,06,16,06,49,2.40
2017,06,16,06,50,1.20
2017,06,16,06,51,0.80
2017,06,16,06,52,0.30
2017,06,16,06,53,0.00
2017,06,16,06,54,0.00
2017,06,16,06,55,0.90
2017,06,16,06,56,0.80
2017,06,16,06,57,1.50
2017,06,16,06,58,1.40
2017,06,16,06,59,0.60
2017,06,16,07,00,2.20
2017,06,16,07,01,2.10
2017,06,16,07,02,1.60
2017,06,16,07,03,2.60
2017,06,16,07,04,0.80
2017,06,16,07,05,1.10
2017,06,16,07,06,2.10
2017,06,16,07,07,0.60
2017,06,16,07,08,0.10
2017,06,16,07,09,0.20
2017,06,16,07,10,0.70
2017,06,16,07,11,0.40
2017,06,16,07,12,1.60
2017,06,16,07,13,1.50
2017,06,16,07,14,0.60
2017,06,16,07,15,0.10
2017,06,16,07,16,0.10
2017,06,16,07,17,0.80
2017,06,16,07,18,0.90
2017,06,16,07,19,1.40
2017,06,16,07,20,1.20
2017,06,16,07,21,0.40
2017,06,16,07,22,1.10
2017,06,16,07,23,1.90
2017,06,16,07,24,1.00
2017,06,16,07,25,0.70
2017,06,16,07,26,0.00
2017,06,16,07,27,0.00
2017,06,16,07,28,0.00
2017,06,16,07,29,0.70
2017,06,16,07,30,1.60
2017,06,16,07,31,1.20
2017,06,16,07,32,2.00
2017,06,16,07,33,2.80
2017,06,16,07,34,3.30
2017,06,16,07,35,4.80
2017,06,16,07,36,4.90
2017,06,16,07,37,1.60
2017,06,16,07,38,2.00
2017,06,16,07,39,0.70
2017,06,16,07,40,0.70
2017,06,16,07,41,0.70
2017,06,16,07,42,0.40
2017,06,16,07,43,1.60
2017,06,16,07,44,1.40
2017,06,16,07,45,1.10
2017,06,16,07,46,0.50
2017,06,16,07,47,0.00
2017,06,16,07,48,0.00
2017,06,16,07,49,0.10
2017,06,16,07,50,0.10
2017,06,16,07,51,0.30
2017,06,16,07,52,0.80
2017,06,16,07,53,1.20
2017,06,16,07,54,1.60
2017,06,16,07,55,2.80
2017,06,16,07,56,3.30
2017,06,16,07,57,3.80
2017,06,16,07,58,3.60
2017,06,16,07,59,1.80
2017,06,16,08,00,1.70
2017,06,16,08,01,1.20
2017,06,16,08,02,1.80
2017,06,16,08,03,1.90
2017,06,16,08,04,1.60
2017,06,16,08,05,1.80
2017,06,16,08,06,1.60
2017,06,16,08,07,1.60
2017,06,16,08,08,1.50
2017,06,16,08,09,0.70
2017,06,16,08,10,0.10
2017,06,16,08,11,0.40
2017,06,16,08,12,0.00
2017,06,16,08,13,0.80
2017,06,16,08,14,0.70
2017,06,16,08,15,0.80
2017,06,16,08,16,0.20
2017,06,16,08,17,0.60
2017,06,16,08,18,0.20
2017,06,16,08,19,0.80
2017,06,16,08,20,0.70
2017,06,16,08,21,0.20
2017,06,16,08,22,0.20
2017,06,16,08,23,1.10
2017,06,16,08,24,2.20
2017,06,16,08,25,0.80
2017,06,16,08,26,0.40
2017,06,16,08,27,0.80
2017,06,16,08,28,0.80
2017,06,16,08,29,1.40
2017,06,16,08,30,1.40
2017,06,16,08,31,0.70
2017,06,16,08,32,1.30
2017,06,16,08,33,1.80
2017,06,16,08,34,2.10
2017,06,16,08,35,3.60
2017,06,16,08,36,2.50
2017,06,16,08,37,1.30
2017,06,16,08,38,2.20
2017,06,16,08,39,1.10
2017,06,16,08,40,1.90
2017,06,16,08,41,1.60
2017,06,16,08,42,1.60
2017,06,16,08,43,3.20
2017,06,16,08,44,1.50
2017,06,16,08,45,2.00
2017,06,16,08,46,0.90
2017,06,16,08,47,0.60
2017,06,16,08,48,0.90
2017,06,16,08,49,1.60
2017,06,16,08,50,2.90
2017,06,16,08,51,2.90
2017,06,16,08,52,1.80
2017,06,16,08,53,2.60
2017,06,16,08,54,2.40
2017,06,16,08,55,3.30
2017,06,16,08,56,0.60
2017,06,16,08,57,0.90
2017,06,16,08,58,0.50
2017,06,16,08,59,2.80
2017,06,16,09,00,2.20
2017,06,16,09,01,0.40
2017,06,16,09,02,1.20
2017,06,16,09,03,2.30
2017,06,16,09,04,5.00
2017,06,16,09,05,4.40
2017,06,16,09,06,3.50
2017,06,16,09,07,4.30
2017,06,16,09,08,6.40
2017,06,16,09,09,6.60
2017,06,16,09,10,7.40
2017,06,16,09,11,5.70
2017,06,16,09,12,4.30
2017,06,16,09,13,5.50
2017,06,16,09,14,4.40
2017,06,16,09,15,1.40
2017,06,16,09,16,1.30
2017,06,16,09,17,3.40
2017,06,16,09,18,2.50
2017,06,16,09,19,2.20
2017,06,16,09,20,6.00
2017,06,16,09,21,2.90
2017,06,16,09,22,2.80
2017,06,16,09,23,3.30
2017,06,16,09,24,2.90
2017,06,16,09,25,2.70
2017,06,16,09,26,5.60
2017,06,16,09,27,5.20
2017,06,16,09,28,2.40
2017,06,16,09,29,2.20
2017,06,16,09,30,2.00
2017,06,16,09,31,2.50
2017,06,16,09,32,3.30
2017,06,16,09,33,3.10
2017,06,16,09,34,1.40
2017,06,16,09,35,2.90
2017,06,16,09,36,2.20
2017,06,16,09,37,2.60
2017,06,16,09,38,2.10
2017,06,16,09,39,2.10
2017,06,16,09,40,1.80
2017,06,16,09,41,2.20
2017,06,16,09,42,0.40
2017,06,16,09,43,1.00
2017,06,16,09,44,0.40
2017,06,16,09,45,1.30
2017,06,16,09,46,2.50
2017,06,16,09,47,6.40
2017,06,16,09,48,4.60
2017,06,16,09,49,4.00
2017,06,16,09,50,3.90
2017,06,16,09,51,0.90
2017,06,16,09,52,1.70
2017,06,16,09,53,1.20
2017,06,16,09,54,3.60
2017,06,16,09,55,1.80
2017,06,16,09,56,1.20
2017,06,16,09,57,4.40
2017,06,16,09,58,5.20
2017,06,16,09,59,3.80
2017,06,16,10,00,5.30
2017,06,16,10,01,4.20
2017,06,16,10,02,3.00
2017,06,16,10,03,2.20
2017,06,16,10,04,2.40
2017,06,16,10,05,6.40
2017,06,16,10,06,1.90
2017,06,16,10,07,3.00
2017,06,16,10,08,6.60
2017,06,16,10,09,6.10
2017,06,16,10,10,4.80
2017,06,16,10,11,4.70
2017,06,16,10,12,2.10
2017,06,16,10,13,1.00
2017,06,16,10,14,0.90
2017,06,16,10,15,2.60
2017,06,16,10,16,1.10
2017,06,16,10,17,1.30
2017,06,16,10,18,2.30
2017,06,16,10,19,0.90
2017,06,16,10,20,3.20
2017,06,16,10,21,5.10
2017,06,16,10,22,3.60
2017,06,16,10,23,0.80
2017,06,16,10,24,2.80
2017,06,16,10,25,1.00
2017,06,16,10,26,0.90
2017,06,16,10,27,1.40
2017,06,16,10,28,5.30
2017,06,16,10,29,5.70
2017,06,16,10,30,3.40
2017,06,16,10,31,4.90
2017,06,16,10,32,6.10
2017,06,16,10,33,6.00
2017,06,16,10,34,4.40
2017,06,16,10,35,5.70
2017,06,16,10,36,2.70
2017,06,16,10,37,4.20
2017,06,16,10,38,4.80
2017,06,16,10,39,4.40
2017,06,16,10,40,2.50
2017,06,16,10,41,0.90
2017,06,16,10,42,2.70
2017,06,16,10,43,5.00
2017,06,16,10,44,7.10
2017,06,16,10,45,4.80
2017,06,16,10,46,5.30
2017,06,16,10,47,4.90
2017,06,16,10,48,2.50
2017,06,16,10,49,2.80
2017,06,16,10,50,2.90
2017,06,16,10,51,4.40
2017,06,16,10,52,2.80
2017,06,16,10,53,1.80
2017,06,16,10,54,1.40
2017,06,16,10,55,2.50
2017,06,16,10,56,4.40
2017,06,16,10,57,5.40
2017,06,16,10,58,4.00
2017,06,16,10,59,3.30
2017,06,16,11,00,3.80
2017,06,16,11,01,3.80
2017,06,16,11,02,3.80
2017,06,16,11,03,4.40
2017,06,16,11,04,3.30
2017,06,16,11,05,1.80
2017,06,16,11,06,2.20
2017,06,16,11,07,3.10
2017,06,16,11,08,2.00
2017,06,16,11,09,5.60
2017,06,16,11,10,7.20
2017,06,16,11,11,4.60
2017,06,16,11,12,3.30
2017,06,16,11,13,4.50
2017,06,16,11,14,3.00
2017,06,16,11,15,5.50
2017,06,16,11,16,5.20
2017,06,16,11,17,4.10
2017,06,16,11,18,4.60
2017,06,16,11,19,4.10
2017,06,16,11,20,4.00
2017,06,16,11,21,2.20
2017,06,16,11,22,3.20
2017,06,16,11,23,4.80
2017,06,16,11,24,6.10
2017,06,16,11,25,5.20
2017,06,16,11,26,3.40
2017,06,16,11,27,2.10
2017,06,16,11,28,5.90
2017,06,16,11,29,2.20
2017,06,16,11,30,3.20
2017,06,16,11,31,6.90
2017,06,16,11,32,6.20
2017,06,16,11,33,4.50
2017,06,16,11,34,4.00
2017,06,16,11,35,3.10
2017,06,16,11,36,4.20
2017,06,16,11,37,4.20
2017,06,16,11,38,3.30
2017,06,16,11,39,1.40
2017,06,16,11,40,0.90
2017,06,16,11,41,1.70
2017,06,16,11,42,2.80
2017,06,16,11,43,3.40
2017,06,16,11,44,3.60
2017,06,16,11,45,5.70
2017,06,16,11,46,5.90
2017,06,16,11,47,4.30
2017,06,16,11,48,1.90
2017,06,16,11,49,1.90
2017,06,16,11,50,2.70
2017,06,16,11,51,3.20
2017,06,16,11,52,4.00
2017,06,16,11,53,3.50
2017,06,16,11,54,7.40
2017,06,16,11,55,7.10
2017,06,16,11,56,4.10
2017,06,16,11,57,9.80
2017,06,16,11,58,9.00
2017,06,16,11,59,9.20
2017,06,16,12,00,7.50
2017,06,16,12,01,8.30
2017,06,16,12,02,8.60
2017,06,16,12,03,7.60
2017,06,16,12,04,8.90
2017,06,16,12,05,7.70
2017,06,16,12,06,4.20
2017,06,16,12,07,8.40
2017,06,16,12,08,6.90
2017,06,16,12,09,5.40
2017,06,16,12,10,1.30
2017,06,16,12,11,1.90
2017,06,16,12,12,7.50
2017,06,16,12,13,11.90
2017,06,16,12,14,9.40
2017,06,16,12,15,7.20
2017,06,16,12,16,8.70
2017,06,16,12,17,13.40
2017,06,16,12,18,9.30
2017,06,16,12,19,4.60
2017,06,16,12,20,9.00
2017,06,16,12,21,8.60
2017,06,16,12,22,10.40
2017,06,16,12,23,5.70
2017,06,16,12,24,9.20
2017,06,16,12,25,4.10
2017,06,16,12,26,4.10
2017,06,16,12,27,12.10
2017,06,16,12,28,6.10
2017,06,16,12,29,6.60
2017,06,16,12,30,7.40
2017,06,16,12,31,9.40
2017,06,16,12,32,7.20
2017,06,16,12,33,7.50
2017,06,16,12,34,7.00
2017,06,16,12,35,7.40
2017,06,16,12,36,5.00
2017,06,16,12,37,4.90
2017,06,16,12,38,6.20
2017,06,16,12,39,4.90
2017,06,16,12,40,3.50
2017,06,16,12,41,6.00
2017,06,16,12,42,7.10
2017,06,16,12,43,7.60
2017,06,16,12,44,6.20
2017,06,16,12,45,4.40
2017,06,16,12,46,4.80
2017,06,16,12,47,4.50
2017,06,16,12,48,3.50
2017,06,16,12,49,1.20
2017,06,16,12,50,0.40
2017,06,16,12,51,0.80
2017,06,16,12,52,2.20
2017,06,16,12,53,2.40
2017,06,16,12,54,1.80
2017,06,16,12,55,0.60
2017,06,16,12,56,0.60
2017,06,16,12,57,1.20
2017,06,16,12,58,1.40
2017,06,16,12,59,3.50
2017,06,16,13,00,2.10
2017,06,16,13,01,2.10
2017,06,16,13,02,1.50
2017,06,16,13,03,2.30
2017,06,16,13,04,2.90
2017,06,16,13,05,2.00
2017,06,16,13,06,2.00
2017,06,16,13,07,1.80
2017,06,16,13,08,3.00
2017,06,16,13,09,2.60
2017,06,16,13,10,1.30
2017,06,16,13,11,2.50
2017,06,16,13,12,2.30
2017,06,16,13,13,1.70
2017,06,16,13,14,2.60
2017,06,16,13,15,1.80
2017,06,16,13,16,2.90
2017,06,16,13,17,5.50
2017,06,16,13,18,5.80
2017,06,16,13,19,4.40
2017,06,16,13,20,3.20
2017,06,16,13,21,4.50
2017,06,16,13,22,3.70
2017,06,16,13,23,1.30
2017,06,16,13,24,1.70
2017,06,16,13,25,3.10
2017,06,16,13,26,4.60
2017,06,16,13,27,2.90
2017,06,16,13,28,3.20
2017,06,16,13,29,3.40
2017,06,16,13,30,6.50
2017,06,16,13,31,7.20
2017,06,16,13,32,3.70
2017,06,16,13,33,3.20
2017,06,16,13,34,4.20
2017,06,16,13,35,5.50
2017,06,16,13,36,5.90
2017,06,16,13,37,4.90
2017,06,16,13,38,4.40
2017,06,16,13,39,5.60
2017,06,16,13,40,6.70
2017,06,16,13,41,4.60
2017,06,16,13,42,4.70
2017,06,16,13,43,5.90
2017,06,16,13,44,6.00
2017,06,16,13,45,5.30
2017,06,16,13,46,5.40
2017,06,16,13,47,5.00
2017,06,16,13,48,5.40
2017,06,16,13,49,6.30
2017,06,16,13,50,6.70
2017,06,16,13,51,6.00
2017,06,16,13,52,6.90
2017,06,16,13,53,6.10
2017,06,16,13,54,7.30
2017,06,16,13,55,6.50
2017,06,16,13,56,6.30
2017,06,16,13,57,5.00
2017,06,16,13,58,5.00
2017,06,16,13,59,3.90
2017,06,16,14,00,5.80
2017,06,16,14,01,4.70
2017,06,16,14,02,4.40
2017,06,16,14,03,2.30
2017,06,16,14,04,2.90
2017,06,16,14,05,1.70
2017,06,16,14,06,0.40
2017,06,16,14,07,1.60
2017,06,16,14,08,2.80
2017,06,16,14,09,5.20
2017,06,16,14,10,3.80
2017,06,16,14,11,1.90
2017,06,16,14,12,3.50
2017,06,16,14,13,2.70
2017,06,16,14,14,0.50
2017,06,16,14,15,0.50
2017,06,16,14,16,1.80
2017,06,16,14,17,1.30
2017,06,16,14,18,2.50
2017,06,16,14,19,2.40
2017,06,16,14,20,4.50
2017,06,16,14,21,5.30
2017,06,16,14,22,6.00
2017,06,16,14,23,3.80
2017,06,16,14,24,3.10
2017,06,16,14,25,3.40
2017,06,16,14,26,4.70
2017,06,16,14,27,4.20
2017,06,16,14,28,5.00
2017,06,16,14,29,6.40
2017,06,16,14,30,3.20
2017,06,16,14,31,2.20
2017,06,16,14,32,3.40
2017,06,16,14,33,5.30
2017,06,16,14,34,7.30
2017,06,16,14,35,9.00
2017,06,16,14,36,8.10
2017,06,16,14,37,4.80
2017,06,16,14,38,9.70
2017,06,16,14,39,8.30
2017,06,16,14,40,6.50
2017,06,16,14,41,5.60
2017,06,16,14,42,5.20
2017,06,16,14,43,8.60
2017,06,16,14,44,5.60
2017,06,16,14,45,3.90
2017,06,16,14,46,6.00
2017,06,16,14,47,6.60
2017,06,16,14,48,7.10
2017,06,16,14,49,10.70
2017,06,16,14,50,9.90
2017,06,16,14,51,10.20
2017,06,16,14,52,7.10
2017,06,16,14,53,7.40
2017,06,16,14,54,6.00
2017,06,16,14,55,7.70
2017,06,16,14,56,9.80
2017,06,16,14,57,12.00
2017,06,16,14,58,4.70
2017,06,16,14,59,8.00
2017,06,16,15,00,5.80
2017,06,16,15,01,3.50
2017,06,16,15,02,4.80
2017,06,16,15,03,8.50
2017,06,16,15,04,9.30
2017,06,16,15,05,7.00
2017,06,16,15,06,6.70
2017,06,16,15,07,5.40
2017,06,16,15,08,5.60
2017,06,16,15,09,3.80
2017,06,16,15,10,8.10
2017,06,16,15,11,7.00
2017,06,16,15,12,7.50
2017,06,16,15,13,10.30
2017,06,16,15,14,10.40
2017,06,16,15,15,8.00
2017,06,16,15,16,7.10
2017,06,16,15,17,6.60
2017,06,16,15,18,5.80
2017,06,16,15,19,4.80
2017,06,16,15,20,6.60
2017,06,16,15,21,8.00
2017,06,16,15,22,6.00
2017,06,16,15,23,4.30
2017,06,16,15,24,4.40
2017,06,16,15,25,1.70
2017,06,16,15,26,2.70
2017,06,16,15,27,2.00
2017,06,16,15,28,2.50
2017,06,16,15,29,7.40
2017,06,16,15,30,7.40
2017,06,16,15,31,6.60
2017,06,16,15,32,6.10
2017,06,16,15,33,5.80
2017,06,16,15,34,3.40
2017,06,16,15,35,4.70
2017,06,16,15,36,3.90
2017,06,16,15,37,1.30
2017,06,16,15,38,1.20
2017,06,16,15,39,2.30
2017,06,16,15,40,2.40
2017,06,16,15,41,1.20
2017,06,16,15,42,3.60
2017,06,16,15,43,4.90
2017,06,16,15,44,6.30
2017,06,16,15,45,5.10
2017,06,16,15,46,3.20
2017,06,16,15,47,1.40
2017,06,16,15,48,5.40
2017,06,16,15,49,6.20
2017,06,16,15,50,2.80
2017,06,16,15,51,2.00
2017,06,16,15,52,4.00
2017,06,16,15,53,7.20
2017,06,16,15,54,6.70
2017,06,16,15,55,5.10
2017,06,16,15,56,4.00
2017,06,16,15,57,6.80
2017,06,16,15,58,6.00
2017,06,16,15,59,3.40
2017,06,16,16,00,3.10
2017,06,16,16,01,3.90
2017,06,16,16,02,7.30
2017,06,16,16,03,4.80
2017,06,16,16,04,6.50
2017,06,16,16,05,10.10
2017,06,16,16,06,12.80
2017,06,16,16,07,10.20
2017,06,16,16,08,8.20
2017,06,16,16,09,8.50
2017,06,16,16,10,1.50
2017,06,16,16,11,5.10
2017,06,16,16,12,4.10
2017,06,16,16,13,9.20
2017,06,16,16,14,5.10
2017,06,16,16,15,5.60
2017,06,16,16,16,6.20
2017,06,16,16,17,5.90
2017,06,16,16,18,2.50
2017,06,16,16,19,5.70
2017,06,16,16,20,8.70
2017,06,16,16,21,3.50
2017,06,16,16,22,3.00
2017,06,16,16,23,2.30
2017,06,16,16,24,2.80
2017,06,16,16,25,3.10
2017,06,16,16,26,5.60
2017,06,16,16,27,7.80
2017,06,16,16,28,6.70
2017,06,16,16,29,3.90
2017,06,16,16,30,2.80
2017,06,16,16,31,4.10
2017,06,16,16,32,4.90
2017,06,16,16,33,5.90
2017,06,16,16,34,4.50
2017,06,16,16,35,4.00
2017,06,16,16,36,7.30
2017,06,16,16,37,3.40
2017,06,16,16,38,3.40
2017,06,16,16,39,3.30
2017,06,16,16,40,3.40
2017,06,16,16,41,2.90
2017,06,16,16,42,4.90
2017,06,16,16,43,5.90
2017,06,16,16,44,4.10
2017,06,16,16,45,1.90
2017,06,16,16,46,4.60
2017,06,16,16,47,5.70
2017,06,16,16,48,5.10
2017,06,16,16,49,2.80
2017,06,16,16,50,3.90
2017,06,16,16,51,3.60
2017,06,16,16,52,4.60
2017,06,16,16,53,3.70
2017,06,16,16,54,5.00
2017,06,16,16,55,2.80
2017,06,16,16,56,2.80
2017,06,16,16,57,2.70
2017,06,16,16,58,3.00
2017,06,16,16,59,4.30
2017,06,16,17,00,3.40
2017,06,16,17,01,4.50
2017,06,16,17,02,5.60
2017,06,16,17,03,5.90
2017,06,16,17,04,4.50
2017,06,16,17,05,5.40
2017,06,16,17,06,5.30
2017,06,16,17,07,4.90
2017,06,16,17,08,3.90
2017,06,16,17,09,3.50
2017,06,16,17,10,3.90
2017,06,16,17,11,5.90
2017,06,16,17,12,6.30
2017,06,16,17,13,5.40
2017,06,16,17,14,4.80
2017,06,16,17,15,3.70
2017,06,16,17,16,3.50
2017,06,16,17,17,2.40
2017,06,16,17,18,4.00
2017,06,16,17,19,6.80
2017,06,16,17,20,3.70
2017,06,16,17,21,1.80
2017,06,16,17,22,3.70
2017,06,16,17,23,5.10
2017,06,16,17,24,4.90
2017,06,16,17,25,4.00
2017,06,16,17,26,5.00
2017,06,16,17,27,7.00
2017,06,16,17,28,6.20
2017,06,16,17,29,4.60
2017,06,16,17,30,3.80
2017,06,16,17,31,3.70
2017,06,16,17,32,4.60
2017,06,16,17,33,3.90
2017,06,16,17,34,3.10
2017,06,16,17,35,2.30
2017,06,16,17,36,3.60
2017,06,16,17,37,2.60
2017,06,16,17,38,4.40
2017,06,16,17,39,4.30
2017,06,16,17,40,2.70
2017,06,16,17,41,3.30
2017,06,16,17,42,2.40
2017,06,16,17,43,2.90
2017,06,16,17,44,4.40
2017,06,16,17,45,4.60
2017,06,16,17,46,2.60
2017,06,16,17,47,4.40
2017,06,16,17,48,1.50
2017,06,16,17,49,3.30
2017,06,16,17,50,4.50
2017,06,16,17,51,3.00
2017,06,16,17,52,2.00
2017,06,16,17,53,5.80
2017,06,16,17,54,6.20
2017,06,16,17,55,8.30
2017,06,16,17,56,6.80
2017,06,16,17,57,5.80
2017,06,16,17,58,3.50
2017,06,16,17,59,2.70
2017,06,16,18,00,4.70
2017,06,16,18,01,5.00
2017,06,16,18,02,2.30
2017,06,16,18,03,3.30
2017,06,16,18,04,2.70
2017,06,16,18,05,1.70